datetime,flow
1957-04-01,23.0
1957-04-02,32.0
1957-04-03,37.0
1957-04-04,36.0
1957-04-05,28.0
1957-04-06,28.0
1957-04-07,25.0
1957-04-08,23.0
1957-04-09,22.0
1957-04-10,23.0
1957-04-11,27.0
1957-04-12,47.0
1957-04-13,66.0
1957-04-14,81.0
1957-04-15,93.0
1957-04-16,105.0
1957-04-17,125.0
1957-04-18,138.0
1957-04-19,144.0
1957-04-20,140.0
1957-04-21,153.0
1957-04-22,186.0
1957-04-23,198.0
1957-04-24,158.0
1957-04-25,121.0
1957-04-26,103.0
1957-04-27,86.0
1957-04-28,78.0
1957-04-29,79.0
1957-04-30,74.0
1957-05-01,86.0
1957-05-02,103.0
1957-05-03,128.0
1957-05-04,165.0
1957-05-05,220.0
1957-05-06,278.0
1957-05-07,308.0
1957-05-08,368.0
1957-05-09,415.0
1957-05-10,426.0
1957-05-11,470.0
1957-05-12,432.0
1957-05-13,377.0
1957-05-14,312.0
1957-05-15,288.0
1957-05-16,275.0
1957-05-17,240.0
1957-05-18,225.0
1957-05-19,232.0
1957-05-20,320.0
1957-05-21,312.0
1957-05-22,275.0
1957-05-23,240.0
1957-05-24,200.0
1957-05-25,190.0
1957-05-26,204.0
1957-05-27,212.0
1957-05-28,220.0
1957-05-29,262.0
1957-05-30,302.0
1957-05-31,347.0
1957-06-01,387.0
1957-06-02,384.0
1957-06-03,374.0
1957-06-04,412.0
1957-06-05,443.0
1957-06-06,470.0
1957-06-07,534.0
1957-06-08,542.0
1957-06-09,522.0
1957-06-10,482.0
1957-06-11,443.0
1957-06-12,384.0
1957-06-13,335.0
1957-06-14,338.0
1957-06-15,341.0
1957-06-16,338.0
1957-06-17,308.0
1957-06-18,262.0
1957-06-19,245.0
1957-06-20,248.0
1957-06-21,250.0
1957-06-22,230.0
1957-06-23,210.0
1957-06-24,200.0
1957-06-25,198.0
1957-06-26,190.0
1957-06-27,177.0
1957-06-28,166.0
1957-06-29,161.0
1957-06-30,161.0
1957-07-01,150.0
1957-07-02,131.0
1957-07-03,115.0
1957-07-04,104.0
1957-07-05,93.0
1957-07-06,78.0
1957-07-07,65.0
1957-07-08,56.0
1957-07-09,65.0
1957-07-10,54.0
1957-07-11,45.0
1957-07-12,51.0
1957-07-13,45.0
1957-07-14,45.0
1957-07-15,42.0
1957-07-16,46.0
1957-07-17,60.0
1957-07-18,46.0
1957-07-19,43.0
1957-07-20,40.0
1957-07-21,38.0
1957-07-22,34.0
1957-07-23,32.0
1957-07-24,39.0
1957-07-25,36.0
1957-07-26,42.0
1957-07-27,35.0
1957-07-28,46.0
1957-07-29,40.0
1957-07-30,40.0
1957-07-31,42.0
1957-08-01,44.0
1957-08-02,51.0
1957-08-03,51.0
1957-08-04,49.0
1957-08-05,53.0
1957-08-06,71.0
1957-08-07,80.0
1957-08-08,56.0
1957-08-09,129.0
1957-08-10,109.0
1957-08-11,76.0
1957-08-12,74.0
1957-08-13,90.0
1957-08-14,88.0
1957-08-15,87.0
1957-08-16,105.0
1957-08-17,125.0
1957-08-18,129.0
1957-08-19,108.0
1957-08-20,93.0
1957-08-21,97.0
1957-08-22,93.0
1957-08-23,100.0
1957-08-24,167.0
1957-08-25,91.0
1957-08-26,87.0
1957-08-27,80.0
1957-08-28,79.0
1957-08-29,116.0
1957-08-30,250.0
1957-08-31,206.0
1957-09-01,184.0
1957-09-02,172.0
1957-09-03,155.0
1957-09-04,136.0
1957-09-05,121.0
1957-09-06,108.0
1957-09-07,93.0
1957-09-08,82.0
1957-09-09,72.0
1957-09-10,65.0
1957-09-11,62.0
1957-09-12,55.0
1957-09-13,52.0
1957-09-14,50.0
1957-09-15,46.0
1957-09-16,44.0
1957-09-17,39.0
1957-09-18,36.0
1957-09-19,34.0
1957-09-20,32.0
1957-09-21,33.0
1957-09-22,30.0
1957-09-23,28.0
1957-09-24,26.0
1957-09-25,26.0
1957-09-26,26.0
1957-09-27,26.0
1957-09-28,25.0
1957-09-29,24.0
1957-09-30,23.0
1957-10-01,21.0
1957-10-02,21.0
1957-10-03,20.0
1957-10-04,20.0
1957-10-05,21.0
1957-10-06,23.0
1957-10-07,23.0
1957-10-08,23.0
1957-10-09,22.0
1957-10-10,21.0
1957-10-11,21.0
1957-10-12,44.0
1957-10-13,39.0
1957-10-14,34.0
1957-10-15,34.0
1957-10-16,37.0
1957-10-17,39.0
1957-10-18,39.0
1957-10-19,418.0
1957-10-20,176.0
1957-10-21,173.0
1957-10-22,269.0
1957-10-23,126.0
1957-10-24,101.0
1957-10-25,92.0
1957-10-26,86.0
1957-10-27,80.0
1957-10-28,77.0
1957-10-29,74.0
1957-10-30,73.0
1957-10-31,74.0
1957-11-01,92.0
1957-11-02,87.0
1957-11-03,85.0
1957-11-04,81.0
1957-11-05,98.0
1957-11-06,92.0
1957-11-07,100.0
1957-11-08,93.0
1957-11-09,84.0
1957-11-10,80.0
1957-11-11,78.0
1957-11-12,81.0
1957-11-13,80.0
1957-11-14,75.0
1957-11-15,73.0
1957-11-16,73.0
1957-11-17,84.0
1957-11-18,68.0
1957-11-19,50.0
1957-11-20,53.0
1957-11-21,54.0
1957-11-22,43.0
1957-11-23,43.0
1957-11-24,52.0
1957-11-25,60.0
1957-11-26,65.0
1957-11-27,70.0
1957-11-28,58.0
1957-11-29,60.0
1957-11-30,45.0
1957-12-01,50.0
1957-12-02,52.0
1957-12-03,52.0
1957-12-04,53.0
1957-12-05,54.0
1957-12-06,54.0
1957-12-07,54.0
1957-12-08,54.0
1957-12-09,53.0
1957-12-10,52.0
1957-12-11,52.0
1957-12-12,50.0
1957-12-13,52.0
1957-12-14,52.0
1957-12-15,52.0
1957-12-16,56.0
1957-12-17,56.0
1957-12-18,54.0
1957-12-19,48.0
1957-12-20,40.0
1957-12-21,46.0
1957-12-22,48.0
1957-12-23,47.0
1957-12-24,45.0
1957-12-25,42.0
1957-12-26,40.0
1957-12-27,46.0
1957-12-28,40.0
1957-12-29,42.0
1957-12-30,45.0
1957-12-31,40.0
1958-01-01,39.0
1958-01-02,39.0
1958-01-03,40.0
1958-01-04,41.0
1958-01-05,42.0
1958-01-06,41.0
1958-01-07,41.0
1958-01-08,41.0
1958-01-09,41.0
1958-01-10,40.0
1958-01-11,39.0
1958-01-12,39.0
1958-01-13,38.0
1958-01-14,39.0
1958-01-15,36.0
1958-01-16,39.0
1958-01-17,39.0
1958-01-18,38.0
1958-01-19,38.0
1958-01-20,37.0
1958-01-21,36.0
1958-01-22,38.0
1958-01-23,39.0
1958-01-24,39.0
1958-01-25,40.0
1958-01-26,40.0
1958-01-27,39.0
1958-01-28,38.0
1958-01-29,40.0
1958-01-30,40.0
1958-01-31,40.0
1958-02-01,40.0
1958-02-02,40.0
1958-02-03,43.0
1958-02-04,45.0
1958-02-05,46.0
1958-02-06,42.0
1958-02-07,40.0
1958-02-08,40.0
1958-02-09,41.0
1958-02-10,41.0
1958-02-11,40.0
1958-02-12,38.0
1958-02-13,40.0
1958-02-14,39.0
1958-02-15,38.0
1958-02-16,39.0
1958-02-17,38.0
1958-02-18,39.0
1958-02-19,40.0
1958-02-20,42.0
1958-02-21,42.0
1958-02-22,43.0
1958-02-23,45.0
1958-02-24,48.0
1958-02-25,67.0
1958-02-26,77.0
1958-02-27,53.0
1958-02-28,46.0
1958-03-01,45.0
1958-03-02,47.0
1958-03-03,46.0
1958-03-04,51.0
1958-03-05,49.0
1958-03-06,47.0
1958-03-07,48.0
1958-03-08,45.0
1958-03-09,42.0
1958-03-10,39.0
1958-03-11,37.0
1958-03-12,41.0
1958-03-13,46.0
1958-03-14,44.0
1958-03-15,42.0
1958-03-16,45.0
1958-03-17,48.0
1958-03-18,44.0
1958-03-19,40.0
1958-03-20,40.0
1958-03-21,43.0
1958-03-22,50.0
1958-03-23,52.0
1958-03-24,53.0
1958-03-25,59.0
1958-03-26,54.0
1958-03-27,51.0
1958-03-28,59.0
1958-03-29,53.0
1958-03-30,52.0
1958-03-31,54.0
1958-04-01,56.0
1958-04-02,64.0
1958-04-03,59.0
1958-04-04,66.0
1958-04-05,55.0
1958-04-06,60.0
1958-04-07,71.0
1958-04-08,86.0
1958-04-09,89.0
1958-04-10,83.0
1958-04-11,80.0
1958-04-12,73.0
1958-04-13,64.0
1958-04-14,67.0
1958-04-15,86.0
1958-04-16,121.0
1958-04-17,132.0
1958-04-18,148.0
1958-04-19,240.0
1958-04-20,328.0
1958-04-21,390.0
1958-04-22,430.0
1958-04-23,490.0
1958-04-24,438.0
1958-04-25,438.0
1958-04-26,494.0
1958-04-27,530.0
1958-04-28,546.0
1958-04-29,470.0
1958-04-30,410.0
1958-05-01,446.0
1958-05-02,498.0
1958-05-03,486.0
1958-05-04,430.0
1958-05-05,502.0
1958-05-06,685.0
1958-05-07,774.0
1958-05-08,828.0
1958-05-09,840.0
1958-05-10,834.0
1958-05-11,846.0
1958-05-12,834.0
1958-05-13,894.0
1958-05-14,888.0
1958-05-15,822.0
1958-05-16,840.0
1958-05-17,834.0
1958-05-18,798.0
1958-05-19,816.0
1958-05-20,768.0
1958-05-21,714.0
1958-05-22,675.0
1958-05-23,650.0
1958-05-24,645.0
1958-05-25,660.0
1958-05-26,650.0
1958-05-27,625.0
1958-05-28,600.0
1958-05-29,586.0
1958-05-30,574.0
1958-05-31,530.0
1958-06-01,474.0
1958-06-02,442.0
1958-06-03,410.0
1958-06-04,375.0
1958-06-05,357.0
1958-06-06,366.0
1958-06-07,384.0
1958-06-08,366.0
1958-06-09,330.0
1958-06-10,292.0
1958-06-11,265.0
1958-06-12,231.0
1958-06-13,210.0
1958-06-14,190.0
1958-06-15,171.0
1958-06-16,163.0
1958-06-17,148.0
1958-06-18,132.0
1958-06-19,124.0
1958-06-20,113.0
1958-06-21,106.0
1958-06-22,95.0
1958-06-23,83.0
1958-06-24,72.0
1958-06-25,64.0
1958-06-26,55.0
1958-06-27,52.0
1958-06-28,48.0
1958-06-29,44.0
1958-06-30,39.0
1958-07-01,34.0
1958-07-02,34.0
1958-07-03,30.0
1958-07-04,26.0
1958-07-05,24.0
1958-07-06,22.0
1958-07-07,21.0
1958-07-08,18.0
1958-07-09,14.0
1958-07-10,13.0
1958-07-11,10.0
1958-07-12,9.7
1958-07-13,10.0
1958-07-14,9.7
1958-07-15,9.1
1958-07-16,8.6
1958-07-17,8.6
1958-07-18,9.1
1958-07-19,13.0
1958-07-20,12.0
1958-07-21,10.0
1958-07-22,10.0
1958-07-23,9.7
1958-07-24,9.7
1958-07-25,9.1
1958-07-26,9.7
1958-07-27,12.0
1958-07-28,12.0
1958-07-29,12.0
1958-07-30,11.0
1958-07-31,11.0
1958-08-01,12.0
1958-08-02,12.0
1958-08-03,10.0
1958-08-04,10.0
1958-08-05,14.0
1958-08-06,14.0
1958-08-07,13.0
1958-08-08,13.0
1958-08-09,13.0
1958-08-10,12.0
1958-08-11,11.0
1958-08-12,10.0
1958-08-13,12.0
1958-08-14,13.0
1958-08-15,13.0
1958-08-16,14.0
1958-08-17,14.0
1958-08-18,17.0
1958-08-19,21.0
1958-08-20,20.0
1958-08-21,21.0
1958-08-22,30.0
1958-08-23,25.0
1958-08-24,22.0
1958-08-25,21.0
1958-08-26,21.0
1958-08-27,20.0
1958-08-28,20.0
1958-08-29,20.0
1958-08-30,20.0
1958-08-31,20.0
1958-09-01,20.0
1958-09-02,19.0
1958-09-03,18.0
1958-09-04,19.0
1958-09-05,19.0
1958-09-06,19.0
1958-09-07,20.0
1958-09-08,20.0
1958-09-09,20.0
1958-09-10,20.0
1958-09-11,21.0
1958-09-12,21.0
1958-09-13,69.0
1958-09-14,38.0
1958-09-15,28.0
1958-09-16,24.0
1958-09-17,24.0
1958-09-18,22.0
1958-09-19,22.0
1958-09-20,21.0
1958-09-21,20.0
1958-09-22,20.0
1958-09-23,20.0
1958-09-24,20.0
1958-09-25,20.0
1958-09-26,20.0
1958-09-27,23.0
1958-09-28,25.0
1958-09-29,36.0
1958-09-30,36.0
1958-10-01,30.0
1958-10-02,31.0
1958-10-03,32.0
1958-10-04,30.0
1958-10-05,31.0
1958-10-06,40.0
1958-10-07,40.0
1958-10-08,35.0
1958-10-09,34.0
1958-10-10,34.0
1958-10-11,34.0
1958-10-12,35.0
1958-10-13,34.0
1958-10-14,34.0
1958-10-15,32.0
1958-10-16,31.0
1958-10-17,32.0
1958-10-18,32.0
1958-10-19,31.0
1958-10-20,30.0
1958-10-21,29.0
1958-10-22,30.0
1958-10-23,30.0
1958-10-24,29.0
1958-10-25,30.0
1958-10-26,34.0
1958-10-27,33.0
1958-10-28,33.0
1958-10-29,32.0
1958-10-30,32.0
1958-10-31,30.0
1958-11-01,30.0
1958-11-02,30.0
1958-11-03,31.0
1958-11-04,31.0
1958-11-05,31.0
1958-11-06,31.0
1958-11-07,32.0
1958-11-08,32.0
1958-11-09,31.0
1958-11-10,31.0
1958-11-11,32.0
1958-11-12,32.0
1958-11-13,32.0
1958-11-14,33.0
1958-11-15,33.0
1958-11-16,37.0
1958-11-17,35.0
1958-11-18,34.0
1958-11-19,34.0
1958-11-20,38.0
1958-11-21,38.0
1958-11-22,40.0
1958-11-23,40.0
1958-11-24,39.0
1958-11-25,40.0
1958-11-26,39.0
1958-11-27,42.0
1958-11-28,38.0
1958-11-29,34.0
1958-11-30,34.0
1958-12-01,37.0
1958-12-02,38.0
1958-12-03,38.0
1958-12-04,39.0
1958-12-05,38.0
1958-12-06,36.0
1958-12-07,37.0
1958-12-08,36.0
1958-12-09,36.0
1958-12-10,36.0
1958-12-11,35.0
1958-12-12,36.0
1958-12-13,34.0
1958-12-14,31.0
1958-12-15,30.0
1958-12-16,32.0
1958-12-17,34.0
1958-12-18,34.0
1958-12-19,34.0
1958-12-20,33.0
1958-12-21,32.0
1958-12-22,32.0
1958-12-23,33.0
1958-12-24,32.0
1958-12-25,32.0
1958-12-26,32.0
1958-12-27,31.0
1958-12-28,34.0
1958-12-29,31.0
1958-12-30,31.0
1958-12-31,31.0
1959-01-01,31.0
1959-01-02,31.0
1959-01-03,31.0
1959-01-04,31.0
1959-01-05,31.0
1959-01-06,32.0
1959-01-07,33.0
1959-01-08,33.0
1959-01-09,33.0
1959-01-10,32.0
1959-01-11,33.0
1959-01-12,33.0
1959-01-13,33.0
1959-01-14,31.0
1959-01-15,31.0
1959-01-16,31.0
1959-01-17,32.0
1959-01-18,31.0
1959-01-19,31.0
1959-01-20,31.0
1959-01-21,30.0
1959-01-22,30.0
1959-01-23,33.0
1959-01-24,35.0
1959-01-25,35.0
1959-01-26,34.0
1959-01-27,33.0
1959-01-28,34.0
1959-01-29,32.0
1959-01-30,33.0
1959-01-31,34.0
1959-02-01,32.0
1959-02-02,30.0
1959-02-03,34.0
1959-02-04,34.0
1959-02-05,34.0
1959-02-06,33.0
1959-02-07,34.0
1959-02-08,34.0
1959-02-09,34.0
1959-02-10,34.0
1959-02-11,32.0
1959-02-12,29.0
1959-02-13,29.0
1959-02-14,30.0
1959-02-15,30.0
1959-02-16,34.0
1959-02-17,34.0
1959-02-18,33.0
1959-02-19,31.0
1959-02-20,31.0
1959-02-21,30.0
1959-02-22,32.0
1959-02-23,32.0
1959-02-24,31.0
1959-02-25,32.0
1959-02-26,31.0
1959-02-27,34.0
1959-02-28,32.0
1959-03-01,33.0
1959-03-02,33.0
1959-03-03,33.0
1959-03-04,32.0
1959-03-05,29.0
1959-03-06,30.0
1959-03-07,32.0
1959-03-08,34.0
1959-03-09,32.0
1959-03-10,31.0
1959-03-11,31.0
1959-03-12,30.0
1959-03-13,30.0
1959-03-14,29.0
1959-03-15,27.0
1959-03-16,28.0
1959-03-17,28.0
1959-03-18,29.0
1959-03-19,30.0
1959-03-20,29.0
1959-03-21,27.0
1959-03-22,27.0
1959-03-23,27.0
1959-03-24,27.0
1959-03-25,33.0
1959-03-26,34.0
1959-03-27,33.0
1959-03-28,32.0
1959-03-29,33.0
1959-03-30,33.0
1959-03-31,33.0
1959-04-01,33.0
1959-04-02,30.0
1959-04-03,30.0
1959-04-04,28.0
1959-04-05,25.0
1959-04-06,25.0
1959-04-07,31.0
1959-04-08,46.0
1959-04-09,40.0
1959-04-10,34.0
1959-04-11,30.0
1959-04-12,29.0
1959-04-13,27.0
1959-04-14,25.0
1959-04-15,23.0
1959-04-16,22.0
1959-04-17,22.0
1959-04-18,22.0
1959-04-19,25.0
1959-04-20,25.0
1959-04-21,25.0
1959-04-22,21.0
1959-04-23,20.0
1959-04-24,21.0
1959-04-25,21.0
1959-04-26,20.0
1959-04-27,21.0
1959-04-28,22.0
1959-04-29,21.0
1959-04-30,18.0
1959-05-01,18.0
1959-05-02,20.0
1959-05-03,23.0
1959-05-04,20.0
1959-05-05,27.0
1959-05-06,27.0
1959-05-07,26.0
1959-05-08,42.0
1959-05-09,40.0
1959-05-10,34.0
1959-05-11,30.0
1959-05-12,25.0
1959-05-13,23.0
1959-05-14,26.0
1959-05-15,36.0
1959-05-16,38.0
1959-05-17,35.0
1959-05-18,30.0
1959-05-19,28.0
1959-05-20,24.0
1959-05-21,25.0
1959-05-22,27.0
1959-05-23,28.0
1959-05-24,40.0
1959-05-25,33.0
1959-05-26,30.0
1959-05-27,25.0
1959-05-28,23.0
1959-05-29,21.0
1959-05-30,19.0
1959-05-31,17.0
1959-06-01,16.0
1959-06-02,18.0
1959-06-03,18.0
1959-06-04,18.0
1959-06-05,16.0
1959-06-06,15.0
1959-06-07,14.0
1959-06-08,13.0
1959-06-09,11.0
1959-06-10,10.0
1959-06-11,8.2
1959-06-12,8.2
1959-06-13,8.2
1959-06-14,8.2
1959-06-15,8.0
1959-06-16,7.6
1959-06-17,7.2
1959-06-18,7.2
1959-06-19,8.0
1959-06-20,10.0
1959-06-21,12.0
1959-06-22,12.0
1959-06-23,11.0
1959-06-24,11.0
1959-06-25,9.7
1959-06-26,9.4
1959-06-27,7.4
1959-06-28,6.9
1959-06-29,6.9
1959-06-30,6.6
1959-07-01,6.4
1959-07-02,6.8
1959-07-03,6.8
1959-07-04,6.0
1959-07-05,5.5
1959-07-06,4.8
1959-07-07,4.7
1959-07-08,4.7
1959-07-09,3.9
1959-07-10,3.9
1959-07-11,5.5
1959-07-12,4.7
1959-07-13,5.1
1959-07-14,3.9
1959-07-15,5.1
1959-07-16,4.7
1959-07-17,4.3
1959-07-18,3.9
1959-07-19,4.3
1959-07-20,5.1
1959-07-21,5.1
1959-07-22,4.7
1959-07-23,9.6
1959-07-24,6.4
1959-07-25,6.8
1959-07-26,7.2
1959-07-27,7.2
1959-07-28,7.7
1959-07-29,8.1
1959-07-30,9.0
1959-07-31,7.2
1959-08-01,6.4
1959-08-02,5.5
1959-08-03,5.1
1959-08-04,5.1
1959-08-05,5.1
1959-08-06,8.5
1959-08-07,12.0
1959-08-08,11.0
1959-08-09,10.0
1959-08-10,9.9
1959-08-11,7.7
1959-08-12,7.7
1959-08-13,9.9
1959-08-14,13.0
1959-08-15,15.0
1959-08-16,12.0
1959-08-17,10.0
1959-08-18,9.9
1959-08-19,9.9
1959-08-20,11.0
1959-08-21,11.0
1959-08-22,9.9
1959-08-23,9.4
1959-08-24,16.0
1959-08-25,15.0
1959-08-26,14.0
1959-08-27,15.0
1959-08-28,13.0
1959-08-29,12.0
1959-08-30,9.4
1959-08-31,8.5
1959-09-01,8.1
1959-09-02,7.2
1959-09-03,7.2
1959-09-04,7.2
1959-09-05,7.2
1959-09-06,7.2
1959-09-07,7.2
1959-09-08,6.8
1959-09-09,6.8
1959-09-10,6.8
1959-09-11,8.5
1959-09-12,7.7
1959-09-13,7.7
1959-09-14,7.7
1959-09-15,6.8
1959-09-16,7.2
1959-09-17,7.7
1959-09-18,8.1
1959-09-19,8.1
1959-09-20,8.5
1959-09-21,8.5
1959-09-22,8.1
1959-09-23,8.1
1959-09-24,8.1
1959-09-25,9.9
1959-09-26,9.4
1959-09-27,9.4
1959-09-28,9.4
1959-09-29,10.0
1959-09-30,12.0
1959-10-01,16.0
1959-10-02,21.0
1959-10-03,13.0
1959-10-04,13.0
1959-10-05,12.0
1959-10-06,14.0
1959-10-07,12.0
1959-10-08,12.0
1959-10-09,13.0
1959-10-10,14.0
1959-10-11,14.0
1959-10-12,14.0
1959-10-13,14.0
1959-10-14,14.0
1959-10-15,14.0
1959-10-16,14.0
1959-10-17,14.0
1959-10-18,14.0
1959-10-19,14.0
1959-10-20,15.0
1959-10-21,15.0
1959-10-22,16.0
1959-10-23,16.0
1959-10-24,15.0
1959-10-25,15.0
1959-10-26,16.0
1959-10-27,16.0
1959-10-28,16.0
1959-10-29,18.0
1959-10-30,18.0
1959-10-31,19.0
1959-11-01,19.0
1959-11-02,20.0
1959-11-03,22.0
1959-11-04,21.0
1959-11-05,21.0
1959-11-06,21.0
1959-11-07,21.0
1959-11-08,21.0
1959-11-09,21.0
1959-11-10,21.0
1959-11-11,21.0
1959-11-12,21.0
1959-11-13,22.0
1959-11-14,23.0
1959-11-15,23.0
1959-11-16,23.0
1959-11-17,23.0
1959-11-18,23.0
1959-11-19,23.0
1959-11-20,25.0
1959-11-21,26.0
1959-11-22,27.0
1959-11-23,27.0
1959-11-24,27.0
1959-11-25,28.0
1959-11-26,28.0
1959-11-27,27.0
1959-11-28,26.0
1959-11-29,21.0
1959-11-30,18.0
1959-12-01,17.0
1959-12-02,18.0
1959-12-03,20.0
1959-12-04,22.0
1959-12-05,22.0
1959-12-06,22.0
1959-12-07,23.0
1959-12-08,22.0
1959-12-09,23.0
1959-12-10,24.0
1959-12-11,26.0
1959-12-12,25.0
1959-12-13,25.0
1959-12-14,24.0
1959-12-15,24.0
1959-12-16,25.0
1959-12-17,25.0
1959-12-18,25.0
1959-12-19,25.0
1959-12-20,25.0
1959-12-21,25.0
1959-12-22,27.0
1959-12-23,27.0
1959-12-24,25.0
1959-12-25,29.0
1959-12-26,30.0
1959-12-27,29.0
1959-12-28,26.0
1959-12-29,30.0
1959-12-30,30.0
1959-12-31,27.0
1960-01-01,25.0
1960-01-02,20.0
1960-01-03,20.0
1960-01-04,20.0
1960-01-05,20.0
1960-01-06,20.0
1960-01-07,22.0
1960-01-08,23.0
1960-01-09,25.0
1960-01-10,26.0
1960-01-11,26.0
1960-01-12,26.0
1960-01-13,26.0
1960-01-14,23.0
1960-01-15,20.0
1960-01-16,19.0
1960-01-17,19.0
1960-01-18,19.0
1960-01-19,18.0
1960-01-20,18.0
1960-01-21,17.0
1960-01-22,18.0
1960-01-23,19.0
1960-01-24,21.0
1960-01-25,22.0
1960-01-26,19.0
1960-01-27,19.0
1960-01-28,18.0
1960-01-29,17.0
1960-01-30,17.0
1960-01-31,17.0
1960-02-01,19.0
1960-02-02,19.0
1960-02-03,19.0
1960-02-04,18.0
1960-02-05,17.0
1960-02-06,17.0
1960-02-07,19.0
1960-02-08,21.0
1960-02-09,29.0
1960-02-10,25.0
1960-02-11,25.0
1960-02-12,23.0
1960-02-13,25.0
1960-02-14,20.0
1960-02-15,22.0
1960-02-16,22.0
1960-02-17,21.0
1960-02-18,22.0
1960-02-19,22.0
1960-02-20,22.0
1960-02-21,21.0
1960-02-22,20.0
1960-02-23,25.0
1960-02-24,25.0
1960-02-25,25.0
1960-02-26,22.0
1960-02-27,23.0
1960-02-28,28.0
1960-02-29,29.0
1960-03-01,27.0
1960-03-02,28.0
1960-03-03,29.0
1960-03-04,34.0
1960-03-05,42.0
1960-03-06,69.0
1960-03-07,98.0
1960-03-08,135.0
1960-03-09,101.0
1960-03-10,65.0
1960-03-11,46.0
1960-03-12,42.0
1960-03-13,43.0
1960-03-14,43.0
1960-03-15,38.0
1960-03-16,36.0
1960-03-17,34.0
1960-03-18,34.0
1960-03-19,36.0
1960-03-20,34.0
1960-03-21,38.0
1960-03-22,42.0
1960-03-23,47.0
1960-03-24,49.0
1960-03-25,50.0
1960-03-26,49.0
1960-03-27,62.0
1960-03-28,78.0
1960-03-29,72.0
1960-03-30,63.0
1960-03-31,71.0
1960-04-01,65.0
1960-04-02,59.0
1960-04-03,53.0
1960-04-04,51.0
1960-04-05,52.0
1960-04-06,66.0
1960-04-07,90.0
1960-04-08,111.0
1960-04-09,120.0
1960-04-10,137.0
1960-04-11,158.0
1960-04-12,168.0
1960-04-13,175.0
1960-04-14,158.0
1960-04-15,153.0
1960-04-16,159.0
1960-04-17,159.0
1960-04-18,146.0
1960-04-19,126.0
1960-04-20,129.0
1960-04-21,146.0
1960-04-22,179.0
1960-04-23,190.0
1960-04-24,181.0
1960-04-25,173.0
1960-04-26,134.0
1960-04-27,106.0
1960-04-28,96.0
1960-04-29,92.0
1960-04-30,86.0
1960-05-01,79.0
1960-05-02,70.0
1960-05-03,61.0
1960-05-04,56.0
1960-05-05,66.0
1960-05-06,67.0
1960-05-07,65.0
1960-05-08,66.0
1960-05-09,68.0
1960-05-10,70.0
1960-05-11,78.0
1960-05-12,89.0
1960-05-13,111.0
1960-05-14,127.0
1960-05-15,137.0
1960-05-16,132.0
1960-05-17,124.0
1960-05-18,114.0
1960-05-19,114.0
1960-05-20,101.0
1960-05-21,87.0
1960-05-22,75.0
1960-05-23,74.0
1960-05-24,74.0
1960-05-25,80.0
1960-05-26,74.0
1960-05-27,65.0
1960-05-28,60.0
1960-05-29,56.0
1960-05-30,62.0
1960-05-31,60.0
1960-06-01,62.0
1960-06-02,58.0
1960-06-03,57.0
1960-06-04,60.0
1960-06-05,64.0
1960-06-06,86.0
1960-06-07,92.0
1960-06-08,80.0
1960-06-09,79.0
1960-06-10,105.0
1960-06-11,109.0
1960-06-12,100.0
1960-06-13,95.0
1960-06-14,83.0
1960-06-15,80.0
1960-06-16,65.0
1960-06-17,50.0
1960-06-18,39.0
1960-06-19,36.0
1960-06-20,31.0
1960-06-21,23.0
1960-06-22,20.0
1960-06-23,20.0
1960-06-24,20.0
1960-06-25,18.0
1960-06-26,16.0
1960-06-27,14.0
1960-06-28,13.0
1960-06-29,12.0
1960-06-30,11.0
1960-07-01,11.0
1960-07-02,11.0
1960-07-03,11.0
1960-07-04,12.0
1960-07-05,14.0
1960-07-06,15.0
1960-07-07,16.0
1960-07-08,18.0
1960-07-09,19.0
1960-07-10,18.0
1960-07-11,17.0
1960-07-12,17.0
1960-07-13,15.0
1960-07-14,14.0
1960-07-15,14.0
1960-07-16,12.0
1960-07-17,13.0
1960-07-18,14.0
1960-07-19,16.0
1960-07-20,18.0
1960-07-21,16.0
1960-07-22,15.0
1960-07-23,15.0
1960-07-24,14.0
1960-07-25,13.0
1960-07-26,12.0
1960-07-27,11.0
1960-07-28,10.0
1960-07-29,11.0
1960-07-30,12.0
1960-07-31,12.0
1960-08-01,11.0
1960-08-02,11.0
1960-08-03,11.0
1960-08-04,11.0
1960-08-05,10.0
1960-08-06,10.0
1960-08-07,10.0
1960-08-08,9.0
1960-08-09,8.0
1960-08-10,6.8
1960-08-11,6.8
1960-08-12,5.1
1960-08-13,6.0
1960-08-14,6.4
1960-08-15,6.0
1960-08-16,5.1
1960-08-17,4.7
1960-08-18,4.7
1960-08-19,5.1
1960-08-20,4.7
1960-08-21,5.1
1960-08-22,4.7
1960-08-23,6.0
1960-08-24,5.5
1960-08-25,5.1
1960-08-26,5.1
1960-08-27,5.1
1960-08-28,5.5
1960-08-29,6.0
1960-08-30,5.5
1960-08-31,5.5
1960-09-01,5.1
1960-09-02,5.1
1960-09-03,5.5
1960-09-04,5.5
1960-09-05,4.3
1960-09-06,3.9
1960-09-07,3.9
1960-09-08,4.3
1960-09-09,5.1
1960-09-10,5.1
1960-09-11,4.3
1960-09-12,4.3
1960-09-13,3.9
1960-09-14,5.1
1960-09-15,5.5
1960-09-16,4.7
1960-09-17,5.1
1960-09-18,5.1
1960-09-19,5.5
1960-09-20,6.0
1960-09-21,6.4
1960-09-22,6.8
1960-09-23,8.1
1960-09-24,8.5
1960-09-25,7.7
1960-09-26,7.2
1960-09-27,7.7
1960-09-28,8.1
1960-09-29,7.2
1960-09-30,6.8
1960-10-01,7.1
1960-10-02,7.7
1960-10-03,8.0
1960-10-04,7.7
1960-10-05,6.8
1960-10-06,6.8
1960-10-07,7.4
1960-10-08,7.7
1960-10-09,8.5
1960-10-10,9.4
1960-10-11,8.5
1960-10-12,8.0
1960-10-13,8.0
1960-10-14,9.9
1960-10-15,13.0
1960-10-16,14.0
1960-10-17,16.0
1960-10-18,18.0
1960-10-19,18.0
1960-10-20,16.0
1960-10-21,16.0
1960-10-22,16.0
1960-10-23,16.0
1960-10-24,18.0
1960-10-25,17.0
1960-10-26,18.0
1960-10-27,18.0
1960-10-28,18.0
1960-10-29,19.0
1960-10-30,20.0
1960-10-31,19.0
1960-11-01,19.0
1960-11-02,20.0
1960-11-03,20.0
1960-11-04,21.0
1960-11-05,21.0
1960-11-06,22.0
1960-11-07,26.0
1960-11-08,28.0
1960-11-09,26.0
1960-11-10,26.0
1960-11-11,24.0
1960-11-12,26.0
1960-11-13,26.0
1960-11-14,26.0
1960-11-15,27.0
1960-11-16,26.0
1960-11-17,25.0
1960-11-18,24.0
1960-11-19,23.0
1960-11-20,22.0
1960-11-21,23.0
1960-11-22,24.0
1960-11-23,24.0
1960-11-24,25.0
1960-11-25,29.0
1960-11-26,30.0
1960-11-27,32.0
1960-11-28,30.0
1960-11-29,28.0
1960-11-30,28.0
1960-12-01,29.0
1960-12-02,28.0
1960-12-03,32.0
1960-12-04,33.0
1960-12-05,30.0
1960-12-06,27.0
1960-12-07,30.0
1960-12-08,30.0
1960-12-09,29.0
1960-12-10,29.0
1960-12-11,29.0
1960-12-12,30.0
1960-12-13,30.0
1960-12-14,30.0
1960-12-15,27.0
1960-12-16,27.0
1960-12-17,27.0
1960-12-18,27.0
1960-12-19,27.0
1960-12-20,27.0
1960-12-21,26.0
1960-12-22,25.0
1960-12-23,26.0
1960-12-24,26.0
1960-12-25,26.0
1960-12-26,25.0
1960-12-27,23.0
1960-12-28,23.0
1960-12-29,23.0
1960-12-30,22.0
1960-12-31,21.0
1961-01-01,21.0
1961-01-02,21.0
1961-01-03,21.0
1961-01-04,20.0
1961-01-05,19.0
1961-01-06,19.0
1961-01-07,20.0
1961-01-08,20.0
1961-01-09,20.0
1961-01-10,19.0
1961-01-11,18.0
1961-01-12,18.0
1961-01-13,18.0
1961-01-14,19.0
1961-01-15,19.0
1961-01-16,19.0
1961-01-17,19.0
1961-01-18,18.0
1961-01-19,17.0
1961-01-20,16.0
1961-01-21,15.0
1961-01-22,17.0
1961-01-23,18.0
1961-01-24,21.0
1961-01-25,25.0
1961-01-26,25.0
1961-01-27,25.0
1961-01-28,25.0
1961-01-29,24.0
1961-01-30,24.0
1961-01-31,24.0
1961-02-01,25.0
1961-02-02,24.0
1961-02-03,26.0
1961-02-04,23.0
1961-02-05,23.0
1961-02-06,23.0
1961-02-07,23.0
1961-02-08,25.0
1961-02-09,26.0
1961-02-10,27.0
1961-02-11,30.0
1961-02-12,29.0
1961-02-13,30.0
1961-02-14,29.0
1961-02-15,29.0
1961-02-16,30.0
1961-02-17,29.0
1961-02-18,28.0
1961-02-19,27.0
1961-02-20,26.0
1961-02-21,26.0
1961-02-22,27.0
1961-02-23,26.0
1961-02-24,26.0
1961-02-25,25.0
1961-02-26,27.0
1961-02-27,26.0
1961-02-28,28.0
1961-03-01,25.0
1961-03-02,28.0
1961-03-03,30.0
1961-03-04,33.0
1961-03-05,34.0
1961-03-06,30.0
1961-03-07,30.0
1961-03-08,27.0
1961-03-09,28.0
1961-03-10,30.0
1961-03-11,30.0
1961-03-12,30.0
1961-03-13,30.0
1961-03-14,30.0
1961-03-15,33.0
1961-03-16,39.0
1961-03-17,39.0
1961-03-18,34.0
1961-03-19,32.0
1961-03-20,30.0
1961-03-21,29.0
1961-03-22,27.0
1961-03-23,32.0
1961-03-24,42.0
1961-03-25,42.0
1961-03-26,39.0
1961-03-27,36.0
1961-03-28,37.0
1961-03-29,38.0
1961-03-30,44.0
1961-03-31,41.0
1961-04-01,35.0
1961-04-02,32.0
1961-04-03,36.0
1961-04-04,53.0
1961-04-05,92.0
1961-04-06,103.0
1961-04-07,110.0
1961-04-08,95.0
1961-04-09,71.0
1961-04-10,69.0
1961-04-11,64.0
1961-04-12,59.0
1961-04-13,68.0
1961-04-14,65.0
1961-04-15,55.0
1961-04-16,59.0
1961-04-17,66.0
1961-04-18,84.0
1961-04-19,117.0
1961-04-20,188.0
1961-04-21,213.0
1961-04-22,220.0
1961-04-23,235.0
1961-04-24,242.0
1961-04-25,228.0
1961-04-26,192.0
1961-04-27,168.0
1961-04-28,158.0
1961-04-29,162.0
1961-04-30,197.0
1961-05-01,238.0
1961-05-02,293.0
1961-05-03,341.0
1961-05-04,341.0
1961-05-05,338.0